Regional Weather Roundup
Issued by NWS Mobile, AL

Home | Current Version | Previous Version | Text Only | Print | Product List | Glossary On
Versions: 1 2 3 4 5 6 7 8 9 10 11 12 13 14 15 16 17 18 19 20 21 22 23 24 25 26 27 28 29 30 31 32 33 34 35 36 37 38 39 40 41 42 43 44 45 46 47 48 49 50
000
ASUS44 KMOB 272310
RWRMOB
REGIONAL WEATHER ROUNDUP
NATIONAL WEATHER SERVICE MOBILE AL
500 PM CST THU NOV 27 2014

NOTE: "FAIR" INDICATES FEW OR NO CLOUDS BELOW 12,000 FEET WITH NO
      SIGNIFICANT WEATHER AND/OR OBSTRUCTIONS TO VISIBILITY.

  * THESE STATIONS ARE PART OF THE UNIVERSITY OF SOUTH ALABAMA
    MESONET AND ARE NOT UNDER NWS OR FAA QUALITY CONTROL.

ALZ061>064-280000-
COASTAL ALABAMA

CITY           SKY/WX    TMP DP  RH WIND       PRES   REMARKS
MOBILE REG APT CLEAR     50  31  48 N7        30.41R
BROOKLEY FIELD CLEAR     52  31  44 N7        30.41R
USA CAMPUS*      N/A    N/A N/A N/A CALM      30.41R
DOG RIVER*     NOT AVBL


CITY           SKY/WX    TMP DP  RH WIND       PRES   REMARKS
MOUNT VERNON*    N/A     48  32  53 CALM      30.41R
SARALAND*      NOT AVBL
BAY MINETTE*   NOT AVBL
LOXLEY*          N/A     50  34  53 N6        30.39R
ROBERTSDALE*     N/A    N/A N/A N/A N5        30.38R
FAIRHOPE*        N/A    N/A N/A N/A N6        30.38R
ELBERTA*         N/A    N/A N/A N/A N5        30.37R
FOLEY*           N/A    N/A N/A N/A NW5       30.33R
GRAND BAY*       N/A    N/A N/A N/A VRB3      30.38R
DAUPHIN ISLND* NOT AVBL
BON SCOUR NWR* NOT AVBL
GULF SHORES    CLEAR     53  31  42 N8        30.37R

$$

ALZ051>060-280000-
INTERIOR SOUTHWEST AND SOUTH CENTRAL ALABAMA

CITY           SKY/WX    TMP DP  RH WIND       PRES   REMARKS
GREENVILLE     CLEAR     48  29  47 NW8       30.37R
EVERGREEN      CLEAR     50  30  46 N8        30.39R
CASTLEBERRY*   NOT AVBL
ATMORE*          N/A    N/A N/A N/A NW9       30.40R
DIXIE*           N/A     48  36  61 CALM      30.34R
ANDALUSIA/OPP  CLEAR     52  30  43 N6        30.37R
ANDALUSIA*       N/A    N/A N/A N/A N6        30.35R
FLORALA APT    CLEAR     49  31  49 CALM      30.37R
FLORALA*         N/A    N/A N/A N/A NW5       30.33R

$$

FLZ001>006-280000-
WESTERN FLORIDA PANHANDLE

CITY           SKY/WX    TMP DP  RH WIND       PRES   REMARKS
PENSACOLA      CLEAR     52  29  41 N9        30.37R
NAS PENSACOLA    N/A     53  31  42 N10       30.37R
MILTON         CLEAR     50  31  48 NW6       30.38R
WHTNG S FIELD  CLEAR     52  30  43 NW8       30.37R


CITY           SKY/WX    TMP DP  RH WIND       PRES   REMARKS
WALNUT HILL*   NOT AVBL
JAY*             N/A    N/A N/A N/A NW7       30.38R
DUKE FIELD     CLEAR     52  29  42 N9        30.35R
CRESTVIEW      CLEAR     51  31  46 N7        30.37R
VALPARAISO     CLEAR     53  30  42 N8        30.35R
DESTIN         CLEAR     54  32  43 N13       30.35R

$$

MSZ076-079-280000-
INTERIOR SOUTHEAST MISSISSIPPI

CITY           SKY/WX    TMP DP  RH WIND       PRES   REMARKS
LEAKESVILLE*     N/A    N/A N/A N/A NW3       30.41R
AGRICOLA*      NOT AVBL

$$

MARINE OBSERVATIONS

STATION/POSITION TIME  TEMP    WIND        PRES    WAVE
                       AIR SEA DIR/SP/G            HT/PER
                 (UTC) (F)     (DEG/KT/KT) (MB)    (FT/S)
PASCAGOULA       2300   55     350/ 10/ 12 1028.9R
PETIT BOIS ISLND 2300   56     360/ 16/ 19 1029.0R
GRAND BAY        2200   57     350/ 12     1029.0S
KATRINA CUT      2200   56     360/ 18     1028.8R
CEDAR POINT      2200   56     350/ 13     1028.1R
E DAUPHIN ISLAND 2154   56     340/ 15/ 17 1028.2R
MIDDLE BAY LIGHT 2200   56     360/ 17     1027.8S
USCG MOBILE BAY  2300   54 58   10/  7/ 11 1028.2R
STATE DOCKS      2300   54 58              1029.1R
MEAHER PARK      2200   55     340/  8     1029.1R
WEEKS BAY        2200   56                   N/A
FORT MORGAN      2300   56      20/ 18/ 19 1028.1R
12 S ORANGE BCH  2300   58 64  340/ 17/ 21 1027.6R   2/ 3
PENSACOLA BAY    2300   56 59  360/  7/ 13 1028.5R
64 S DAUPHIN ISL 2217   59 71  360/ 17/ 21 1028.6R   4/ 5
67 S FORT MORGAN 2200   59     360/ 19     1027.4R

$$

SELECTED LOCATIONS ACROSS THE REGION

CITY           SKY/WX    TMP DP  RH WIND       PRES   REMARKS
NEW ORLEANS    PTCLDY    56  35  45 N9        30.40R
GULFPORT       CLEAR     54  30  40 N9        30.40R
PASCAGOULA AP  CLEAR     51  31  46 N8        30.40R
PASCAGOULA*      N/A    N/A N/A N/A N9        30.39R
HATTIESBURG    CLEAR     52  31  44 N7        30.44R
LAUREL         CLEAR     48  28  46 NW5       30.45R
MERIDIAN       CLEAR     44  30  57 N7        30.45R
JACKSON        CLEAR     45  31  58 N9        30.47R
MONTGOMERY     CLEAR     48  29  47 NW9       30.40R
TROY           CLEAR     46  30  53 N7        30.37R
KINSTON*       NOT AVBL
GENEVA*          N/A    N/A N/A N/A VRB6      30.37R
ASHFORD*         N/A    N/A N/A N/A N6        30.35R
DOTHAN         CLEAR     49  32  52 NW8       30.37R
PANAMA CITY    CLEAR     51  36  56 NW6       30.32R

$$



USA.gov is the U.S. government's official web portal to all federal, state and local government web resources and services.